[[{"header":{"parameterUnit":"m.s-1","parameterCategory":1,"la1":30.2991,"la2":30.254,"lo1":-89.0895,"lo2":-89.0444,"dy":0.0017,"dx":0.0017,"nx":28,"ny":28,"refTime":"2023-11-01T03:00:00:Z","depth":0,"parameterNumber":2,"parameterNumberName":"U-component_of_WINDS"},"data":[0,0,0,0,0,0,0,0,0,0,0,0,0,0,0,0,0,0,0,0,0,0,0,0,0,0,0,0,0,0,0,0,0,0,0,0,0,0,0,0,0,0,0,0,0,0,0,0,0,0,0,0,0,0,0,0,0,0,-4.737,-4.737,0,-4.7377,-4.7377,-4.7377,-4.7242,-4.7239,-4.7235,-4.7232,-4.7243,-4.7246,-4.725,0,0,0,0,0,0,0,0,0,0,0,0,0,-4.7245,-4.7248,-4.737,-4.737,-4.737,-4.7377,-4.7377,-4.7377,-4.7243,-4.7239,-4.7234,-4.723,-4.7242,-4.7246,-4.725,0,0,0,0,0,0,0,0,0,0,0,0,0,-4.728,-4.7249,-4.737,-4.7304,-4.7298,-4.7377,-4.7377,-4.7377,-4.7244,-4.7238,-4.7233,-4.7228,-4.724,-4.7245,-4.7251,-4.7394,0,0,-4.7268,-4.727,0,0,0,0,0,0,0,0,-4.7279,-4.7285,-4.7313,-4.7309,-4.7302,-4.7303,-4.7337,-4.7383,-4.7245,-4.7265,-4.7232,-4.7225,-4.7267,-4.727,-4.7284,-4.7395,-4.7395,-4.7268,-4.7272,-4.7274,-4.7276,0,0,0,0,0,0,0,-4.7276,-4.7284,-4.7373,-4.7314,-4.7307,-4.7275,-4.7274,-4.7345,-4.7297,-4.7262,-4.7253,-4.7255,-4.7263,-4.7279,-4.7283,-4.7395,-4.7268,-4.7273,-4.7276,-4.7279,-4.7626,-4.7632,0,0,0,0,0,0,-4.7282,-4.7283,-4.7372,-4.7373,-4.7277,-4.7282,-4.7281,-4.7308,-4.7295,-4.7288,-4.726,-4.7249,-4.7272,-4.7277,-4.7283,-4.7451,-4.7274,-4.7279,-4.7282,-4.762,-4.7628,-4.7634,0,0,0,0,0,0,-4.728,-4.7291,-4.7372,-4.7325,-4.7333,-4.729,-4.7322,-4.7311,-4.7326,-4.7293,-4.7285,-4.7284,-4.7268,-4.7275,-4.7368,-4.7449,-4.7282,-4.7287,-4.7613,-4.7623,-4.7631,-4.7788,0,0,0,0,0,0,-4.7277,-4.7291,-4.7344,-4.7327,-4.7336,-4.7456,-4.7327,-4.7315,-4.7336,-4.7322,-4.7314,-4.7307,-4.7264,-4.736,-4.7373,-4.7454,-4.7291,-4.7606,-4.7618,-4.7628,-4.7775,-4.7801,-4.7823,0,0,0,0,0,-4.7273,-4.7389,-4.7348,-4.7359,-4.7401,-4.7461,-4.7466,-4.7412,-4.7343,-4.7397,-4.7376,-4.7308,-4.7438,-4.7371,-4.7384,-4.7468,-4.7601,-4.7614,-4.7627,-4.7764,-4.7796,-4.7822,0,0,0,0,0,0,-4.7417,-4.7385,-4.7339,-4.7453,-4.746,-4.7438,-4.7503,-4.7447,-4.7476,-4.7461,-4.7395,-4.7395,-4.7499,-4.7492,-4.7418,-4.7607,-4.7507,-4.7524,-4.7607,-4.7637,-4.766,-4.766,-4.7296,0,0,0,0,0,-4.7462,-4.7512,-4.7482,-4.7585,-4.7591,-4.7547,-4.7571,-4.7529,-4.7535,-4.7538,-4.7523,-4.7533,-4.7576,-4.7606,-4.7644,-4.7774,-4.7771,-4.7838,-4.7862,-4.7882,-4.7897,-4.7967,-4.7997,-4.7678,-4.7678,-4.7677,0,0,-4.7555,-4.7544,-4.758,-4.7614,-4.7614,-4.7669,-4.7551,-4.7613,-4.7653,-4.7548,-4.7634,-4.7625,-4.7631,-4.7743,-4.7792,-4.7741,-4.7985,-4.7899,-4.7915,-4.7919,-4.7984,-4.8014,-4.8041,-4.7687,-4.7685,-4.7684,0,0,-4.7753,-4.775,-4.7835,-4.7839,-4.7842,-4.7812,-4.7833,-4.782,-4.7809,-4.7894,-4.7816,-4.7864,-4.794,-4.7948,-4.7962,-4.8165,-4.8105,-4.818,-4.8305,-4.8374,-4.8399,-4.8421,-4.8495,-4.8522,-4.8195,-4.8195,-4.8196,0,-4.7869,-4.7947,-4.7887,-4.7955,-4.7973,-4.7879,-4.7967,-4.7973,-4.799,-4.8005,-4.7947,-4.8041,-4.8039,-4.8152,-4.8202,-4.8216,-4.8239,-4.818,-4.84,-4.8421,-4.8441,-4.8511,-4.8539,-4.8205,-4.8204,-4.8203,-4.8202,0,-4.809,-4.8146,-4.8215,-4.8232,-4.8258,-4.8335,-4.8289,-4.8322,-4.8279,-4.8256,-4.8346,-4.834,-4.8375,-4.8399,-4.8358,-4.8508,-4.8477,-4.8411,-4.831,-4.8482,-4.8546,-4.8572,-4.8218,-4.8214,-4.8212,-4.8209,0,0,-4.8378,-4.8362,-4.8388,-4.8395,-4.8393,-4.8435,-4.851,-4.8543,-4.8574,-4.8589,-4.8651,-4.8717,-4.8657,-4.8673,-4.8632,-4.8693,-4.8856,-4.862,-4.8619,-4.8665,-4.9023,-4.9073,-4.9105,-4.8816,-4.8821,-4.8824,-4.9023,0,-4.8571,-4.8696,-4.8645,-4.8774,-4.8826,-4.8739,-4.8804,-4.881,-4.8792,-4.8834,-4.8813,-4.8862,-4.8778,-4.8787,-4.8843,-4.8825,-4.8927,-4.8809,-4.8874,-4.8877,-4.8876,-4.9138,-4.9191,-4.9378,-4.9048,-4.9052,-4.9055,0,-4.8813,-4.8837,-4.8972,-4.8961,-4.8981,-4.904,-4.9068,-4.9109,-4.9115,-4.9097,-4.9117,-4.9063,-4.9137,-4.9036,-4.9138,-4.9059,-4.9083,-4.9078,-4.9084,-4.9089,-4.8977,-4.9151,-4.9436,-4.9465,-4.9094,-4.9091,-4.9088,0,-4.9011,-4.9077,-4.9166,-4.9175,-4.9165,-4.9209,-4.9207,-4.9207,-4.9232,-4.9257,-4.9272,-4.9306,-4.9325,-4.9354,-4.9312,-4.9242,-4.9421,-4.9316,-4.941,-4.9411,-4.9451,-4.9449,-4.9746,-4.9466,-4.9466,-4.9465,-4.9465,0,-4.9231,-4.9318,-4.9255,-4.931,-4.9405,-4.9347,-4.9443,-4.9431,-4.9433,-4.9486,-4.9413,-4.9465,-4.9405,-4.9452,-4.9419,-4.951,-4.9519,-4.9508,-4.9499,-4.9515,-4.9517,-4.953,-4.9516,-4.9473,-4.9471,-4.947,-4.9468,0,-4.9468,-4.9429,-4.9522,-4.9504,-4.9502,-4.9573,-4.9559,-4.9611,-4.9587,-4.9655,-4.9668,-4.9632,-4.9683,-4.9644,-4.9694,-4.9672,-4.9793,-4.9764,-4.979,-4.9783,-4.9879,-4.9871,-5.0195,-5.0235,-4.9929,-4.9932,-4.9935,0,-4.9612,-4.9676,-4.9666,-4.9696,-4.9698,-4.9747,-4.9771,-4.9717,-4.9746,-4.9759,-4.981,-4.9855,-4.9887,-4.9974,-4.9953,-4.9992,-4.9965,-5.0076,-4.997,-4.9985,-4.9968,-4.9965,-4.9972,-5.0097,-5.0101,-5.0104,-5.0106,0,-4.9871,-4.9849,-4.9886,-4.9919,-4.9949,-4.9972,-4.9989,-5.0018,-4.9963,-4.9999,-5.005,-5.0076,-5.0128,-5.0174,-5.0206,-5.0205,-5.0148,-5.014,-5.0164,-5.0181,-5.0194,-5.019,-4.9849,-5.0133,-5.013,-5.0128,-5.0127,-5.0126,-5.0066,-5.012,-5.0122,-5.0166,-5.0173,-5.0191,-5.0239,-5.0222,-5.0263,-5.03,-5.0266,-5.0328,-5.0335,-5.0372,-5.0379,-5.0428,-5.0382,-5.0417,-5.0425,-5.0435,-5.0449,-5.0186,-5.0433,-5.0433,-5.0432,-5.0431,-5.0431,0,-5.0323,-5.032,-5.0361,-5.0387,-5.0423,-5.0365,-5.0381,-5.0415,-5.047,-5.0481,-5.0515,-5.0575,-5.062,-5.0604,-5.0644,-5.0686,-5.0661,-5.0699,-5.0696,-5.0697,-5.0487,-5.0463,-5.0719,-5.0719,-5.0719,-5.0719,-5.0718,-5.0718,-5.046,-5.0548,-5.0527,-5.0619,-5.0616,-5.0675,-5.069,-5.0707,-5.0715,-5.0785,-5.0821,-5.081,-5.081,-5.085,-5.089,-5.0884,-5.0903,-5.095,-5.0935,-5.074,-5.0711,-5.0684,-5.0661,-5.0955,-5.0955,-5.1141,-5.1143,-5.1144]},{"header":{"parameterUnit":"m.s-1","parameterCategory":1,"la1":30.2991,"la2":30.254,"lo1":-89.0895,"lo2":-89.0444,"dy":0.0017,"dx":0.0017,"nx":28,"ny":28,"refTime":"2023-11-01T03:00:00:Z","depth":0,"parameterNumber":3,"parameterNumberName":"V-component_of_WINDS"},"data":[0,0,0,0,0,0,0,0,0,0,0,0,0,0,0,0,0,0,0,0,0,0,0,0,0,0,0,0,0,0,0,0,0,0,0,0,0,0,0,0,0,0,0,0,0,0,0,0,0,0,0,0,0,0,0,0,0,0,-0.9829,-0.9829,0,-0.9844,-0.9844,-0.9844,-0.9814,-0.9813,-0.9812,-0.9811,-0.9828,-0.9829,-0.9831,0,0,0,0,0,0,0,0,0,0,0,0,0,-0.9775,-0.9776,-0.9829,-0.983,-0.983,-0.9844,-0.9844,-0.9845,-0.9814,-0.9813,-0.9811,-0.981,-0.9827,-0.9829,-0.9831,0,0,0,0,0,0,0,0,0,0,0,0,0,-0.9795,-0.9776,-0.9829,-0.9816,-0.9815,-0.9844,-0.9844,-0.9845,-0.9814,-0.9813,-0.9811,-0.981,-0.9827,-0.9829,-0.9831,-0.9874,0,0,-0.9837,-0.9838,0,0,0,0,0,0,0,0,-0.9794,-0.9797,-0.9818,-0.9817,-0.9816,-0.9825,-0.9831,-0.9855,-0.9814,-0.9815,-0.9811,-0.9809,-0.9828,-0.983,-0.9836,-0.9875,-0.9876,-0.9837,-0.9839,-0.984,-0.984,0,0,0,0,0,0,0,-0.9793,-0.9796,-0.9835,-0.9818,-0.9817,-0.9809,-0.9811,-0.9836,-0.983,-0.9814,-0.9812,-0.9814,-0.9828,-0.9834,-0.9837,-0.9876,-0.9837,-0.9839,-0.9841,-0.9841,-0.9949,-0.9951,0,0,0,0,0,0,-0.9793,-0.9795,-0.9835,-0.9836,-0.9801,-0.9812,-0.9813,-0.9824,-0.9829,-0.9829,-0.9815,-0.9813,-0.9832,-0.9834,-0.9837,-0.9888,-0.984,-0.9842,-0.9843,-0.9948,-0.995,-0.9951,0,0,0,0,0,0,-0.9792,-0.9797,-0.9834,-0.9815,-0.9819,-0.9814,-0.9827,-0.9825,-0.9832,-0.983,-0.9829,-0.9824,-0.9831,-0.9834,-0.9865,-0.9888,-0.9843,-0.9844,-0.9946,-0.9948,-0.9951,-0.9989,0,0,0,0,0,0,-0.979,-0.9796,-0.9813,-0.9815,-0.982,-0.9862,-0.9828,-0.9826,-0.9835,-0.9832,-0.9838,-0.9837,-0.983,-0.9862,-0.9867,-0.989,-0.9846,-0.9944,-0.9947,-0.995,-0.9986,-0.9993,-0.9999,0,0,0,0,0,-0.9788,-0.9824,-0.9814,-0.9819,-0.9841,-0.9863,-0.9866,-0.9856,-0.9837,-0.9854,-0.9852,-0.9837,-0.9884,-0.9865,-0.9871,-0.9895,-0.9942,-0.9946,-0.995,-0.9983,-0.9992,-0.9998,0,0,0,0,0,0,-0.9825,-0.9824,-0.9813,-0.985,-0.9857,-0.9858,-0.9879,-0.9865,-0.9878,-0.9874,-0.9862,-0.9863,-0.9896,-0.9898,-0.9877,-0.9936,-0.991,-0.9915,-0.9934,-0.9942,-0.9948,-0.9947,-0.9848,0,0,0,0,0,-0.9837,-0.9855,-0.9853,-0.9887,-0.989,-0.9884,-0.9893,-0.9885,-0.9891,-0.9894,-0.9895,-0.9903,-0.9919,-0.993,-0.9945,-0.9986,-0.9986,-1.0005,-1.0011,-1.0016,-1.0021,-1.0042,-1.005,-0.9963,-0.9963,-0.9963,0,0,-0.9864,-0.9865,-0.9877,-0.9894,-0.9898,-0.9917,-0.9887,-0.9908,-0.9922,-0.9898,-0.9927,-0.9927,-0.9935,-0.997,-0.9986,-0.9973,-1.0044,-1.0021,-1.0025,-1.0027,-1.0046,-1.0054,-1.0062,-0.9966,-0.9965,-0.9965,0,0,-0.9921,-0.9924,-0.9951,-0.9955,-0.9961,-0.9956,-0.9963,-0.9965,-0.9965,-0.9993,-0.9975,-0.9991,-1.002,-1.0026,-1.0032,-1.0089,-1.0075,-1.0094,-1.0128,-1.0148,-1.0155,-1.0161,-1.0181,-1.0189,-1.0099,-1.0099,-1.0099,0,-0.9953,-0.998,-0.9967,-0.9989,-0.9997,-0.9974,-1.0002,-1.0007,-1.0018,-1.0024,-1.0009,-1.0043,-1.0047,-1.0083,-1.0096,-1.0103,-1.011,-1.0094,-1.0155,-1.0161,-1.0166,-1.0185,-1.0193,-1.0101,-1.0101,-1.0101,-1.01,0,-1.0019,-1.0038,-1.0059,-1.0069,-1.0079,-1.0104,-1.0095,-1.0107,-1.0097,-1.0093,-1.0122,-1.0125,-1.0139,-1.0147,-1.0138,-1.0182,-1.0173,-1.0157,-1.0131,-1.0177,-1.0195,-1.0202,-1.0104,-1.0104,-1.0103,-1.0102,0,0,-1.0102,-1.0102,-1.0111,-1.0114,-1.0118,-1.0133,-1.0156,-1.017,-1.018,-1.0188,-1.0207,-1.0231,-1.0215,-1.0223,-1.0214,-1.0231,-1.0276,-1.0212,-1.0212,-1.0224,-1.0324,-1.0337,-1.0346,-1.0266,-1.0267,-1.0268,-1.0323,0,-1.0158,-1.0198,-1.0186,-1.0226,-1.0244,-1.0221,-1.0241,-1.0246,-1.0243,-1.0257,-1.0254,-1.0271,-1.0249,-1.0253,-1.0269,-1.0267,-1.0296,-1.0263,-1.0285,-1.0285,-1.0284,-1.0355,-1.0369,-1.0421,-1.033,-1.0331,-1.0332,0,-1.023,-1.024,-1.0281,-1.0281,-1.0288,-1.0306,-1.0317,-1.0331,-1.0335,-1.0332,-1.0339,-1.0326,-1.0349,-1.0321,-1.0353,-1.033,-1.0338,-1.0338,-1.034,-1.0342,-1.0312,-1.036,-1.0437,-1.0445,-1.0343,-1.0342,-1.0341,0,-1.0287,-1.031,-1.0337,-1.0341,-1.0342,-1.0355,-1.0356,-1.0359,-1.0367,-1.0376,-1.0381,-1.0393,-1.04,-1.041,-1.04,-1.0381,-1.0433,-1.0405,-1.0431,-1.0431,-1.0444,-1.0444,-1.0524,-1.0448,-1.0448,-1.0448,-1.0447,0,-1.0352,-1.0378,-1.0362,-1.038,-1.0408,-1.0394,-1.0423,-1.0421,-1.0423,-1.044,-1.0421,-1.0437,-1.0423,-1.0437,-1.043,-1.0457,-1.046,-1.0458,-1.0456,-1.046,-1.046,-1.0466,-1.0462,-1.045,-1.0449,-1.0449,-1.0448,0,-1.0421,-1.0411,-1.0439,-1.0437,-1.0436,-1.0458,-1.0455,-1.0471,-1.0466,-1.0487,-1.0491,-1.0483,-1.0499,-1.0489,-1.0506,-1.0501,-1.0536,-1.0529,-1.0534,-1.0533,-1.0559,-1.0557,-1.0647,-1.0658,-1.0574,-1.0575,-1.0576,0,-1.0463,-1.0483,-1.0481,-1.049,-1.0492,-1.0507,-1.0515,-1.0501,-1.051,-1.0516,-1.0531,-1.0545,-1.0555,-1.0582,-1.0578,-1.059,-1.0583,-1.0614,-1.0585,-1.0588,-1.0584,-1.0583,-1.0585,-1.062,-1.0621,-1.0622,-1.0622,0,-1.054,-1.0533,-1.0545,-1.0555,-1.0565,-1.0572,-1.0578,-1.0586,-1.0572,-1.0583,-1.0599,-1.0607,-1.0622,-1.0637,-1.0647,-1.0648,-1.0633,-1.0631,-1.0638,-1.0643,-1.0645,-1.0644,-1.0551,-1.0629,-1.0629,-1.0628,-1.0628,-1.0627,-1.0597,-1.0613,-1.0614,-1.0627,-1.063,-1.0635,-1.0649,-1.0645,-1.0657,-1.0669,-1.0659,-1.0678,-1.068,-1.0692,-1.0695,-1.0709,-1.0697,-1.0707,-1.0709,-1.0712,-1.0716,-1.0642,-1.0711,-1.0711,-1.071,-1.071,-1.071,0,-1.0673,-1.0672,-1.0684,-1.0692,-1.0702,-1.0686,-1.0691,-1.0701,-1.0717,-1.072,-1.073,-1.0747,-1.076,-1.0756,-1.0768,-1.078,-1.0774,-1.0784,-1.0783,-1.0784,-1.0726,-1.0719,-1.0789,-1.0789,-1.0789,-1.0789,-1.0789,-1.0789,-1.0714,-1.0739,-1.0733,-1.076,-1.0758,-1.0775,-1.078,-1.0784,-1.0787,-1.0807,-1.0817,-1.0814,-1.0814,-1.0825,-1.0836,-1.0835,-1.084,-1.0853,-1.0849,-1.0796,-1.0788,-1.0781,-1.0774,-1.0854,-1.0854,-1.0906,-1.0906,-1.0907]}]]